THORAD AGENA D DEB

Satellite information

Favourite Embed

Satellite Type and Status

DEBRISIN ORBIT

Key statistics

Satellite THORAD AGENA D DEB at a glance.

Uptime

20239

Days in orbit

Revolutions

≈ 13.6

Per day

Orbit

SSO

Sun Synchronous Orbit

Inclination

100.1

Latest

Satellite identification and parameters

Extended collection of information and parameters for THORAD AGENA D DEB.

Object identification

Identified? True

Debris? True

Object name: THORAD AGENA D DEB

International designator: 1970-025HN

Object number (NORAD): 4992

Object ID (CCSDS): 4992

Country: UNITED STATES OF AMERICA (US)

Current information (Y/N): Y

RCS size: SMALL

Orbital parameters

Period: 105.804 minutes

Inclination: 100.1346 deg

SMA: 7410.159 km

Apoapsis: 1043.804 km

Periapsis: 1020.245 km

RAAN: 82.3919 deg

Eccentricy: 0.0015897

Argument of periapsis: 354.2407 deg

Mean anomaly: 161.5817 deg

Mean motion: 13.61010358 rev/day

Mean motion (dot): 0.00000247 rev/day2

B* drag term: 0.00038947935 1/REarth

Two-line elements (TLE)

Creation date: Sept. 3, 2025, 10:15 a.m.

Reference frame: TEME

Reference center: EARTH

Epoch: Sept. 3, 2025, 12:07 a.m. UTC

TLE line 0: 0 THORAD AGENA D DEB

TLE line 1: 1 04992U 70025HN 25246.00510089 .00000247 00000-0 38948-3 0 9998

TLE line 2: 2 04992 100.1346 82.3919 0015897 354.2407 161.5817 13.61010358744123

Live tracking on map

Real-time ground track for satellite THORAD AGENA D DEB.

In-orbit conjunctions

A list of the most updated potential collisions computed for object THORAD AGENA D DEB.

Target Orbit TCA Probability of collision Miss distance Type
THORAD AGENA D DEB SSO 2024-10-15 00:07:24 0.0001645561 181.0 (m) DEBRIS
NIMBUS 2 DEB SSO 2024-08-19 17:55:52 0.0001634397 183.0 (m) DEBRIS

Associated space launch

Meteorological research and development satellite

THORAD AGENA D DEB was lifted into orbit during the mission ‘Thorad SLV-2G Agena D | Nimbus 4’, on board a Thorad SLV-2G Agena D space rocket.

The launch took place on April 8, 1970, 8:17 a.m. from Space Launch Complex 2E.

For more information about the launch, click the button.

Launch to space Thorad SLV-2G Agena D | Nimbus 4
Thorad SLV-2G Agena D | Nimbus 4

Agency: N/A

Status: Launch Successful

Launch date: April 8, 1970, 8:17 a.m. UTC

Rocket: Thorad SLV-2G Agena D

Launch pad: Space Launch Complex 2E

Location: Vandenberg SFB, CA, USA

...

Latest news about this satellite

There are no fresh news available about this satellite. Check back as we update our databases every day.


Newsletter sign-up

Weekly statistics, charts and insights to help you stay on top of the space industry.